8,
Avoca, PA
on Saturday, December 1, 2012

Saturday
Previous Day Next Day
Daily Summary
 ActualAverageRecord
Temperature
Mean Temperature °F 36°F  
Max Temperature 41°F 43°F 71°F (2006)
Min Temperature 35°F 29°F 5°F (1936)
Degree Days
Heating Degree Days 27 29  
Month to date heating degree days 27 29  
Since 1 July heating degree days 1254 1342  
Cooling Degree Days 0 0  
Month to date cooling degree days 0 0  
Year to date cooling degree days 864 580  
Moisture
Dew Point 33°F   
Average Humidity 82    
Maximum Humidity 89    
Minimum Humidity 75    
Precipitation
Precipitation T in 0.10 in 1.58 in (2010)
Month to date precipitation T 0.10  
Year to date precipitation 34.17 35.68  
Wind
Wind Speed 3 mph   
Max Wind Speed 9 mph   
Max Gust Speed 15 mph   
Visibility 9 miles   
Events     

Key: T is trace of precipitation, MM is missing value
Source: NWS Daily Summary
Time(EST)TemperatureDew PointHumidity Pressure Visibility Wind DirectionWind SpeedGust SpeedPrecipitationEvents Conditions
12:28 AM 35.6°F 30.2°F 81% 30.37 in 8.0 miles Variable 3.5 mph - N/A   Overcast
12:54 AM 36.0°F 30.9°F 82% 30.39 in 7.0 miles NNE 4.6 mph - N/A   Overcast
1:54 AM 36.0°F 30.9°F 82% 30.40 in 7.0 miles NE 4.6 mph - N/A   Overcast
2:54 AM 35.1°F 30.0°F 82% 30.40 in 7.0 miles NE 4.6 mph - N/A   Overcast
3:54 AM 35.1°F 30.9°F 85% 30.39 in 8.0 miles NE 5.8 mph - N/A   Overcast
4:54 AM 35.1°F 30.9°F 85% 30.40 in 8.0 miles Variable 4.6 mph - 0.00 in   Overcast
5:12 AM 35.6°F 30.2°F 81% 30.38 in 9.0 miles Variable 4.6 mph - N/A   Overcast
5:54 AM 35.1°F 30.9°F 85% 30.41 in 9.0 miles Variable 4.6 mph - N/A   Overcast
6:13 AM 35.6°F 30.2°F 81% 30.39 in 9.0 miles NE 5.8 mph - N/A   Overcast
6:54 AM 36.0°F 30.9°F 82% 30.42 in 10.0 miles East 4.6 mph - N/A   Overcast
7:54 AM 36.0°F 32.0°F 86% 30.45 in 7.0 miles NE 5.8 mph - N/A   Overcast
8:15 AM 37.4°F 32.0°F 81% 30.43 in 9.0 miles ENE 4.6 mph - N/A   Overcast
8:41 AM 37.4°F 32.0°F 81% 30.44 in 8.0 miles NE 5.8 mph - N/A   Overcast
8:54 AM 37.0°F 32.0°F 82% 30.45 in 8.0 miles ENE 4.6 mph - N/A   Overcast
9:08 AM 37.4°F 33.8°F 87% 30.43 in 9.0 miles Variable 6.9 mph - N/A   Overcast
9:54 AM 39.9°F 34.0°F 79% 30.45 in 10.0 miles East 4.6 mph - N/A   Overcast
10:54 AM 39.9°F 35.1°F 83% 30.43 in 10.0 miles Calm Calm - N/A   Overcast
11:54 AM 39.9°F 35.1°F 83% 30.43 in 10.0 miles Calm Calm - N/A   Overcast
12:54 PM 41.0°F 36.0°F 82% 30.40 in 10.0 miles Variable 3.5 mph - N/A   Overcast
1:54 PM 41.0°F 35.1°F 79% 30.40 in 10.0 miles ESE 4.6 mph - N/A   Overcast
2:54 PM 39.9°F 35.1°F 83% 30.40 in 10.0 miles ESE 3.5 mph - N/A   Overcast
3:54 PM 39.0°F 35.1°F 86% 30.42 in 10.0 miles ESE 4.6 mph - N/A   Overcast
4:54 PM 39.0°F 35.1°F 86% 30.42 in 10.0 miles ESE 4.6 mph - N/A   Overcast
5:49 PM 39.2°F 35.6°F 87% 30.40 in 10.0 miles ESE 3.5 mph - N/A   Overcast
5:54 PM 39.0°F 35.1°F 86% 30.42 in 10.0 miles ESE 4.6 mph - N/A   Overcast
6:50 PM 39.2°F 35.6°F 87% 30.39 in 10.0 miles Calm Calm - N/A   Overcast
6:54 PM 39.0°F 35.1°F 86% 30.41 in 10.0 miles ESE 3.5 mph - N/A   Overcast
7:54 PM 39.9°F 36.0°F 86% 30.41 in 10.0 miles Calm Calm - N/A   Overcast
8:54 PM 39.9°F 36.0°F 86% 30.42 in 10.0 miles Calm Calm - N/A   Overcast
9:54 PM 39.9°F 36.0°F 86% 30.41 in 10.0 miles Calm Calm - N/A   Overcast
10:54 PM 41.0°F 36.0°F 82% 30.39 in 10.0 miles Calm Calm - N/A   Overcast
11:54 PM 39.9°F 37.0°F 89% 30.39 in 10.0 miles Calm Calm - N/A   Overcast
Astronomy
Sunrise:07:09 AM (EST) Moon Rise:07:22 PM (EST)
Sunset:04:34 PM (EST) Moon Set:09:20 AM (EST)
Moon Phase
Dec. 01 Dec. 06 Dec. 13 Dec. 20 Dec. 28

Copyright © 2014 The Weather Underground, Inc.
8,